Вернуться в каталог

ATLAS 5 CENTAUR R/B

АктивенVLEO
NORAD 49329·ROCKET BODY·🇺🇸 United States

Запущен Oct 16, 2021 с Cape Canaveral Space Force Station

Loading…

Ближайшие Пролёты (ближайшие 24 часа)

TLE

УстаревшееSource: Space-Track

Эпоха: Oct 16, 2021, 09:47 UTC

1 49329U 21093B   21289.40775685  .00002371 -74891-5  00000-0 0  9994
2 49329  28.4700 357.4008 0105000 216.7000 268.5023 16.15960640    03

Отслеживайте ATLAS 5 CENTAUR R/B в реальном времени с AllMySat

Download on the App Store